カタログに戻る

STARLINK-37225

運用中通信VLEO
NORAD 68714·PAYLOAD·🇺🇸 United States

打ち上げ Apr 14, 2026 から Cape Canaveral Space Force Station

Loading…

次のパス (今後24時間)

TLE

最新Source: CelesTrak SupGP

元期: Sep 15, 2026, 04:26 UTC

1 68714C 26081R   26258.18520833 -.00055370  00000+0 -16359-2 0  2581
2 68714  53.1586 230.5665 0001324  89.1668 232.0307 15.34417556    10

AllMySatでSTARLINK-37225をリアルタイム追跡

Download on the App Store